Location: Evensen
(52.5775°N, 9.5258°E)
Time: 11:49:13
(UTC+00:00)

Cosmos 1763 Rocket - Pass Details

Date: 15 May 2026
Orbit: 728 x 773 km, 74.0° (Epoch: 7 June)

Event Time Altitude Azimuth Distance (km) Brightness Sun altitude
Exits shadow 21:10:51 13° 183° (S) 2,084 5.3 -13.2°
Maximum altitude 21:15:21 55° 108° (ESE) 931 3.7 -13.6°
Drops below altitude 10° 21:20:29 10° 32° (NNE) 2,320 6.4 -14.0°
Sets 21:22:54 0° 29° (NNE) 3,245 7.2 -14.1°
